Temp_Advection
nan nan nan nan nan nan nan nan nan nan nan nan nan nan nan nan nan nan nan nan nan nan nan nan nan nan nan nan nan nan nan nan nan
nan -0 -0 -0 -0 -0 -0 0 -0 -0 -0 -0 -0 -0 -0 -0 -0 -0 0 0 0 -0 0 -0 -0 -0 -0 -0 -0 -0 -0 -0 nan
nan -0 -0 -0 -0 -0 -0 -0 -0 0 0 0 -0 -0 -0 -0 -0 -0 0 -0 -0 -0 -0 -0 -0 -0 -0 -0 -0 -0 -0 0 nan
nan 0 -0 -0 -0 -0 -0 -0 -0 0 0 0 0 -0 0 -0 -0 -0 0 -0 -0 -0 -0 -0 -0 -0 -0 -0 -0 0 0 0 nan
nan 0 0 -0 -0 -0 0 0 0 0 0 0 0 0 0 0 0 0 0 -0 -0 -0 -0 0 0 -0 -0 -0 -0 -0 -0 0 nan
nan 0 0 0 0 0 0 0 0 0 0 0 0 0 0 0 0 0 0 -0 -0 -0 -0 0 -0 -0 -0 -0 -0 -0 -0 -0 nan
nan 0 0 0 0 0 0 0 0 0 0 0 0 0 0 0 0 0 0 0 -0 -0 -0 0 -0 -0 -0 -0 -0 -0 -0 -0 nan
nan 0 0 0 0 0 0 0 0 0 0 0 0 0 0 0 0 0 0 0 0 -0 -0 0 0 -0 -0 -0 -0 -0 -0 -0 nan
nan 0 0 0 0 0 0 0 0 0 0 0 0 0 0 0 0 0 0 0 0 0 -0 -0 -0 -0 -0 -0 -0 -0 -0 -0 nan
nan 0 0 0 0 0 0 0 0 0 0 0 -0 -0 -0 -0 -0 0 0 0 0 0 0 -0 -0 -0 -0 -0 -0 -0 -0 -0 nan
nan 0 0 0 0 0 0 0 0 0 0 -0 -0 -0 -0 0 0 0 0 0 0 0 0 0 0 -0 -0 -0 -0 -0 -0 -0 nan
nan 0 0 0 0 0 0 0 0 0 0 -0 -0 -0 -0 0 0 0 0 0 0 0 0 0 0 0 -0 -0 -0 -0 -1 -0 nan
nan 0 0 0 0 0 0 0 0 0 -0 -0 -0 -0 0 0 0 0 0 0 0 0 0 0 -0 0 0 -0 -0 -0 -1 -1 nan
nan 0 0 0 0 0 0 0 0 0 -0 -0 -0 -0 0 0 0 0 0 0 0 0 0 0 -0 0 -0 -0 -0 -0 -0 -0 nan
nan 0 0 0 0 0 0 0 0 -0 -0 -0 0 0 0 0 0 0 0 0 0 0 0 0 0 0 0 -0 -0 0 -0 -0 nan
nan 0 0 -0 -0 0 0 0 -0 0 -0 0 0 0 0 0 0 0 0 0 0 0 0 0 -0 -0 -0 -0 -0 -0 0 0 nan
nan 0 0 -0 0 0 0 -0 -0 0 0 0 0 0 0 0 0 0 0 0 0 0 0 0 -0 -0 -0 -0 -0 -0 -0 0 nan
nan -0 0 0 0 0 0 0 0 0 0 0 0 0 0 0 0 0 0 0 0 0 0 0 0 -0 -0 -0 -0 -0 -0 0 nan
nan -0 0 1 1 1 1 0 0 0 0 0 0 0 0 0 0 0 0 1 1 1 0 0 0 0 -0 0 0 0 -0 0 nan
nan nan nan nan nan nan nan nan nan nan nan nan nan nan nan nan nan nan nan nan nan nan nan nan nan nan nan nan nan nan nan nan nan
Wind_Speed
6 6 7 12 13 17 18 14 12 7 3 2 4 6 4 5 6 9 9 10 10 9 8 8 8 5 5 6 4 5 5 4 3
7 7 9 11 12 14 13 10 8 5 2 4 8 6 6 5 6 7 7 9 8 6 3 3 3 4 5 7 5 5 5 4 5
8 8 9 10 11 11 10 8 6 5 6 7 9 7 5 5 4 3 5 4 3 4 5 5 5 4 3 3 1 3 5 1 1
10 9 9 10 10 10 8 8 8 9 9 9 9 8 5 4 2 2 1 4 6 7 7 6 3 3 5 6 5 6 7 5 5
10 10 9 9 9 9 9 9 9 10 10 10 8 8 6 3 2 1 3 6 10 9 7 3 5 7 7 6 6 6 6 6 7
11 10 9 9 9 9 9 9 9 9 8 9 8 6 4 3 4 4 5 9 10 10 8 6 7 8 7 7 8 8 9 10 9
11 10 11 10 10 10 10 10 9 8 7 7 6 4 4 4 5 7 8 9 10 11 9 8 9 9 9 9 9 10 10 11 11
15 13 13 12 12 12 11 10 9 8 7 6 6 6 5 5 7 8 9 11 8 11 11 8 9 10 9 9 9 9 9 8 8
16 15 13 12 12 12 11 10 9 7 7 7 7 7 7 8 9 10 10 10 11 13 12 8 7 8 9 9 8 8 9 9 9
16 15 13 13 13 13 11 10 9 8 7 8 8 8 8 9 10 10 9 9 10 11 9 8 7 7 8 9 9 10 11 12 12
18 16 14 14 14 14 11 10 9 9 9 10 9 10 10 10 10 9 8 7 8 8 8 7 7 7 9 10 11 13 13 13 14
19 18 17 15 15 16 14 14 12 12 11 12 11 10 10 10 9 8 7 6 6 6 6 6 6 8 10 12 13 14 15 16 16
21 20 17 18 17 17 16 14 14 14 14 13 12 11 10 9 9 8 6 5 5 6 6 6 9 9 10 11 12 14 18 19 18
23 21 18 20 19 18 17 15 15 14 15 14 12 11 10 10 9 7 6 6 5 6 6 9 9 10 10 12 14 15 16 18 18
23 22 22 23 21 20 20 17 16 16 15 14 13 12 11 11 8 8 7 7 7 7 9 11 10 12 13 14 16 17 17 18 19
25 24 24 26 25 22 21 20 20 18 17 16 15 14 13 12 11 10 9 10 9 10 12 12 13 15 17 19 20 20 20 18 17
27 27 28 29 28 27 26 24 23 20 19 18 14 9 13 14 14 12 12 12 12 13 14 14 16 18 20 22 21 23 22 20 18
33 27 29 31 31 32 31 28 26 23 21 20 15 6 8 7 12 15 15 15 15 15 16 17 19 23 25 24 24 22 22 21 19
36 35 30 31 32 34 34 30 28 24 23 21 21 20 16 9 6 12 15 16 17 17 17 19 23 24 23 23 23 23 23 23 20
37 38 36 33 34 36 34 32 29 27 24 22 21 19 18 16 16 11 12 15 16 17 19 23 23 23 22 22 24 25 23 24 26
Wind_Direction
157 152 155 151 149 149 159 159 175 189 209 298 151 146 115 90 98 63 63 59 50 45 54 45 46 35 5 328 344 354 343 321 309
154 151 156 163 151 153 164 172 182 201 239 148 159 151 128 94 80 48 68 67 58 56 42 353 329 343 324 338 18 313 310 314 306
149 142 144 156 166 168 175 191 199 171 147 150 169 163 147 118 102 45 68 20 359 345 325 324 327 314 322 348 29 74 81 219 327
151 147 142 143 152 162 164 158 150 146 149 161 178 180 171 152 125 93 33 307 326 336 340 350 351 287 283 277 272 276 279 275 285
157 155 152 149 149 153 156 153 152 156 163 174 186 184 191 200 190 227 277 304 311 326 327 278 254 280 302 312 309 304 300 293 277
168 164 165 162 162 164 166 163 163 167 174 183 189 195 217 243 244 262 294 309 309 311 305 291 283 290 299 300 301 297 294 288 289
183 180 176 175 175 177 176 174 173 179 188 191 204 219 243 259 264 284 299 306 305 300 296 288 292 296 297 299 300 298 295 293 291
195 191 188 185 188 188 188 187 186 197 207 202 227 247 259 267 280 289 298 303 293 294 310 296 296 298 303 305 308 305 304 304 303
202 199 197 199 198 197 196 196 202 200 216 240 253 260 268 279 284 288 287 284 276 285 306 308 302 303 310 315 316 312 311 308 306
208 199 202 206 207 204 204 206 209 222 245 256 262 270 280 285 288 291 291 286 282 287 294 300 304 307 308 309 310 307 304 305 305
216 213 212 213 212 210 212 218 226 240 260 258 256 267 277 286 290 292 292 286 284 287 293 299 304 305 306 308 309 308 306 308 308
221 221 223 219 215 212 219 223 236 245 260 263 261 267 276 282 289 293 292 287 281 281 288 295 303 306 303 304 308 309 308 307 306
225 221 226 218 223 226 228 231 241 247 254 258 260 270 277 281 286 283 276 274 274 280 283 288 300 300 301 303 306 307 308 307 306
228 226 226 221 226 229 231 237 244 251 251 249 256 264 270 276 282 269 266 264 265 273 272 291 295 301 300 303 307 307 304 305 305
229 230 228 225 226 229 230 236 247 251 244 245 255 257 259 262 256 255 256 252 262 269 276 290 292 297 300 307 311 307 305 305 303
232 233 229 228 231 235 236 237 240 248 244 241 248 255 258 259 255 251 252 254 262 268 275 287 295 299 303 307 309 306 306 304 303
234 238 234 232 232 232 236 239 239 244 242 239 245 252 254 246 244 245 251 255 266 269 276 287 293 297 301 304 303 304 304 302 302
238 236 243 238 236 235 236 236 238 242 242 239 234 228 237 225 237 247 251 253 260 266 275 284 292 299 301 302 302 300 299 299 300
242 240 247 243 241 240 236 233 236 239 239 236 239 243 251 240 239 244 246 250 255 263 271 281 290 295 296 296 297 297 297 295 294
242 244 243 245 243 241 237 232 232 237 237 240 244 244 247 251 248 257 249 249 255 260 270 283 286 290 292 293 295 295 295 296 294
Height
1531 1532 1533 1535 1536 1537 1539 1541 1543 1544 1544 1544 1544 1544 1544 1545 1545 1545 1545 1545 1546 1545 1545 1545 1545 1545 1545 1544 1544 1543 1543 1544 1544
1532 1533 1534 1535 1537 1539 1541 1542 1543 1544 1544 1543 1543 1545 1545 1545 1545 1545 1546 1546 1546 1546 1546 1545 1545 1546 1545 1544 1544 1544 1543 1544 1544
1533 1533 1534 1536 1537 1539 1541 1542 1543 1543 1543 1544 1544 1545 1546 1546 1546 1546 1546 1547 1547 1546 1546 1546 1545 1545 1545 1544 1543 1543 1543 1543 1543
1533 1534 1535 1536 1537 1539 1540 1542 1543 1544 1545 1545 1545 1545 1545 1546 1547 1547 1547 1547 1547 1546 1545 1545 1545 1545 1544 1543 1542 1542 1544 1542 1542
1533 1535 1536 1537 1538 1539 1541 1542 1544 1545 1545 1545 1545 1546 1547 1547 1547 1547 1547 1547 1546 1545 1545 1545 1544 1544 1544 1542 1541 1541 1542 1542 1541
1533 1535 1536 1537 1539 1540 1541 1543 1544 1545 1545 1545 1546 1547 1548 1548 1548 1548 1547 1547 1545 1545 1545 1545 1543 1542 1543 1542 1541 1541 1540 1540 1540
1534 1534 1536 1537 1538 1539 1541 1542 1543 1544 1545 1545 1546 1547 1547 1548 1548 1548 1548 1547 1545 1544 1544 1543 1542 1541 1542 1541 1540 1540 1539 1538 1538
1533 1534 1535 1537 1538 1539 1540 1541 1542 1543 1544 1545 1545 1545 1545 1546 1547 1547 1547 1546 1544 1542 1543 1542 1541 1540 1540 1540 1539 1539 1538 1537 1536
1531 1533 1534 1536 1537 1539 1540 1540 1541 1543 1544 1545 1545 1545 1545 1545 1545 1545 1545 1545 1543 1542 1541 1541 1540 1540 1539 1539 1538 1538 1536 1536 1535
1530 1531 1533 1535 1537 1538 1539 1540 1540 1542 1542 1544 1544 1544 1544 1543 1543 1543 1543 1542 1542 1541 1540 1540 1539 1539 1538 1538 1537 1536 1535 1534 1532
1529 1531 1532 1533 1535 1537 1538 1540 1540 1541 1541 1542 1542 1542 1542 1542 1541 1541 1541 1540 1540 1539 1539 1538 1539 1538 1537 1537 1536 1534 1534 1533 1531
1526 1529 1530 1532 1534 1535 1536 1537 1539 1539 1540 1540 1541 1541 1540 1539 1539 1538 1538 1538 1538 1537 1537 1537 1537 1537 1536 1536 1534 1532 1532 1531 1529
1523 1525 1528 1530 1532 1533 1534 1535 1537 1538 1538 1538 1539 1538 1538 1537 1536 1536 1536 1536 1536 1536 1536 1535 1535 1535 1534 1533 1532 1531 1529 1527 1526
1521 1522 1525 1528 1529 1531 1532 1533 1535 1535 1535 1536 1536 1536 1535 1534 1534 1534 1534 1533 1533 1534 1534 1534 1533 1532 1531 1531 1530 1528 1527 1525 1523
1517 1520 1522 1524 1526 1527 1529 1531 1532 1533 1533 1533 1534 1533 1532 1532 1531 1532 1531 1531 1531 1531 1531 1531 1530 1529 1529 1528 1526 1525 1523 1521 1519
1512 1515 1518 1519 1521 1523 1526 1527 1529 1530 1531 1530 1530 1531 1530 1529 1529 1529 1530 1529 1528 1527 1528 1528 1528 1527 1525 1524 1522 1521 1519 1517 1515
1506 1510 1512 1514 1516 1519 1520 1523 1525 1526 1527 1528 1527 1528 1528 1526 1526 1527 1527 1527 1526 1525 1524 1524 1524 1523 1522 1520 1518 1516 1514 1512 1511
1501 1504 1507 1509 1511 1512 1515 1518 1519 1521 1522 1524 1525 1523 1523 1522 1523 1523 1524 1524 1523 1523 1522 1520 1519 1518 1516 1514 1512 1510 1508 1507 1505
1495 1499 1503 1503 1504 1507 1510 1512 1514 1516 1518 1518 1519 1519 1520 1519 1520 1520 1519 1520 1519 1519 1518 1517 1515 1513 1511 1509 1507 1504 1502 1501 1500
1490 1493 1496 1498 1500 1502 1505 1506 1509 1511 1513 1514 1515 1514 1515 1514 1516 1515 1515 1516 1515 1515 1514 1512 1510 1508 1506 1503 1501 1499 1496 1494 1492